Location: Berg
(48.4333°N, 13.9167°E)
Time: 03:08:45
(UTC+00:00)

CENTAUR R/B - Pass Details

Date: 18 September 2020
Orbit: 755 x 1433 km, 63.4° (Epoch: 02 October)

Event Time Altitude Azimuth Distance (km) Brightness Sun altitude
Rises 21:15:09 0° 314° (NW) 4,226 6.8 -35.4°
Reaches altitude 10° 21:18:16 10° 304° (NW) 3,340 5.9 -35.6°
Maximum altitude 21:25:04 29° 249° (WSW) 2,315 4.4 -36.2°
Enters shadow 21:25:43 29° 241° (WSW) 2,335 4.4 -36.3°
